עמוד ראשי
METAR-TAF:

METAR-TAF

שדות תעופה :

Quinhagak, אלסקה, ארצות הברית

קו רוחב: 59-45-18N, קו אורך: 161-50-43W, גובה: 13מטר

תצפית מזג אוויר נוכחית

הדו"ח נערך לפני 41דקות, בשעה 11:56 UTC
רוח רגועה
טמפרטורת 12 צלסיוס
לחות 100%
לחץ 1017 hPa
ראות: 16.1קילומטר
מעונן בגובה 400רגל

METAR: PAQH 251156Z AUTO 00000KT 10SM OVC004 12/12 A3003 RMK AO2 SLP169 T01170117 10150 20111 58006

זמן: 04:37 (12:37 UTC)


TAF: חסר

תצפיות ותחזיות מזג אוויר לגבי יותר מ- 4,000 שדות תעופה ברחבי העולם. דוחות METAR ו- TAF.

התחנות הזמינות מסומנות בנקודות צהובות ואדומות על גבי המפה.

העבר את העכבר לנקודה הצבעונית על מנת לראות את שם התחנה.

לאחר מכן, לחץ כדי לראות את תוכן ואת תחזיות מזג האוויר.

כדי לשנות את המפה: לחץ על הכפתורים הירוקים עם הפלוס השחור כדי להתקרב; על הכפתור הירוק עם המקף כדי להתרחק; או בחיצים הירוקים למפות סמוכות.


METAR-TAF: